This demonstration page uses our WeatherBlox Daily Observations layout. Learn more.

36.17497, -115.13722

Hourly Observations for October 26, 2018

Temp ( °F °C ) Dew Point ( °F °C ) Humidity (%) Winds ( mph kmh ) Pressure ( in mb ) Visibility ( mi km ) Precip ( " mm )
12:53 am 00:53 Clear 65 18.3 31 -0.6 28 28 NNE 5 7 30.06 1018 10 16.09344 0 0
1:53 am 01:53 Clear 62 16.7 33 0.6 34 34 W 6 9 30.09 1019 10 16.09344 0 0
2:53 am 02:53 Clear 61 16.1 34 1.1 36 36 Calm 30.09 1019 10 16.09344 0 0
3:53 am 03:53 Clear 60 15.6 35 1.7 39 39 N 5 7 30.09 1019 10 16.09344 0 0
4:53 am 04:53 Clear 59 15 35 1.7 41 41 N 5 7 30.12 1020 10 16.09344 0 0
5:53 am 05:53 Clear 58 14.4 35 1.7 42 42 Calm 30.12 1020 10 16.09344 0 0
6:53 am 06:53 Clear 58 14.4 36 2.2 44 44 NW 7 11 30.15 1021 10 16.09344 0 0
7:53 am 07:53 Sunny 60 15.6 35 1.7 39 39 WNW 6 9 30.18 1022 10 16.09344 0 0
8:53 am 08:53 Sunny 64 17.8 36 2.2 35 35 Calm 30.18 1022 10 16.09344 0 0
9:53 am 09:53 Sunny 69 20.6 35 1.7 29 29 Calm 30.18 1022 10 16.09344 0 0
10:53 am 10:53 Sunny 73 22.8 36 2.2 26 26 SSE 5 7 30.18 1022 10 16.09344 0 0
11:53 am 11:53 Sunny 75 23.9 34 1.1 22 22 S 5 7 30.15 1021 10 16.09344 0 0
12:53 pm 12:53 Sunny 77 25 34 1.1 21 21 Calm 30.12 1020 10 16.09344 0 0
1:53 pm 13:53 Sunny 78 25.6 34 1.1 20 20 N 5 7 30.09 1019 10 16.09344 0 0
2:53 pm 14:53 Sunny 80 26.7 33 0.6 18 18 E 6 9 30.06 1018 10 16.09344 0 0
3:53 pm 15:53 Sunny 81 27.2 32 0 17 17 N 3 6 30.06 1018 10 16.09344 0 0
4:53 pm 16:53 Sunny 80 26.7 33 0.6 18 18 Calm 30.06 1018 10 16.09344 0 0
5:53 pm 17:53 Clear 78 25.6 32 0 19 19 Calm 30.06 1018 10 16.09344 0 0
6:53 pm 18:53 Clear 75 23.9 34 1.1 22 22 Calm 30.06 1018 10 16.09344 0 0
7:53 pm 19:53 Clear 72 22.2 37 2.8 28 28 WNW 6 9 30.09 1019 10 16.09344 0 0
8:53 pm 20:53 Clear 68 20 39 3.9 35 35 N 3 6 30.09 1019 10 16.09344 0 0
9:53 pm 21:53 Clear 68 20 37 2.8 32 32 NW 7 11 30.09 1019 10 16.09344 0 0
10:53 pm 22:53 Clear 65 18.3 38 3.3 37 37 NW 5 7 30.09 1019 10 16.09344 0 0
11:53 pm 23:53 Clear 64 17.8 38 3.3 38 38 NW 5 7 30.09 1019 10 16.09344 0 0

Powered by AerisWeather